Погода в Каменке

Россия / Приморский край     44°27′28″N   136°00′43″E
темп.,
°C
ветер,
м/с
пор.,
м/с
влажн.,
%
обл.,
%
осадки,
мм/ч
давл.,
гПа
погр.,
м
15 мая, сб
сб1501:00+10зюз1160100 0.0 101412
04:00+10юз1461100 0.0 101290
07:00+9всв1283100 0.8 101332
10:00+10ю2787100 1.2 1012277
13:00+12ююз358199 0.0 1009312
16:00+10ююз379078 0.0 1006206
19:00+10юз239391 0.0 1005110
22:00+11зюз239597 0.0 1006129
16 мая, вс
вс1601:00+11сз51166100 0.0 1007449
04:00+10сз3472100 0.0 1007164
07:00+10сз2276100 0.1 100833
10:00+15зюз2450100 0.1 1007862
13:00+15ю3550100 0.0 1005775
16:00+13юз2457100 0.0 1004665
19:00+12з2266100 0.0 100440
22:00+11сз3463100 0.0 100450
17 мая, пн
пн1701:00+10ссз44654 0.0 100436
04:00+10ссз45673 0.0 100347
07:00+11сз34631 0.0 100462
10:00+18сз36360 0.0 10041172
13:00+20зсз1430100 0.0 10031813
16:00+18юз364080 0.0 1003907
19:00+15зсз1254100 0.0 100431
22:00+14сз3451100 0.0 100545
18 мая, вт
вт1801:00+13сз3355100 0.0 100526
04:00+12сз44590 0.0 100539
07:00+14ссз34610 0.0 100657
10:00+20ююз12410 0.0 1006919
13:00+18ююз35462 0.0 1005628
16:00+17ююз35447 0.0 1005348
19:00+15зюз225812 0.0 100550
22:00+14сз22534 0.0 100515
19 мая, ср
ср1901:00+13зсз22580 0.0 100514
04:00+13зсз22555 0.0 100521
07:00+14з2255100 0.0 100630
10:00+19юз2345100 0.0 1005351
13:00+17ююз345399 0.0 1006501
16:00+17ююз345683 0.0 1005281
19:00+15зюз358485 1.9 1006105
22:00+14сз44803 2.2 100938